DELTA 1 DEB, 10712

Orbit data source: Space-Track

DELTA 1 DEB, 10712 is space debris in SSO originally from a launch on Thu, 29 Jul 1976 UTC launched from the Air Force Western Test Range (AFWTR). Debris objects in space refer to the collection of defunct objects orbiting the Earth. Examples of debris include non-operational satellites, rocket bodies, and fragments generated from explosions, collisions, or faulty payload assembly.

Loading next visibility...
Identifier
10712, 1976-077AH
Orbit
SSO
Country
Flag of USUS
Related business
Manufacturer
Unknown
Mission
Spacecraft
Bus & Motor
Unknown
Mass
Unknown
Launch date (UTC)
1976-07-29 (50 years ago)
Launch vehicle
Unknown
Launch site
Air Force Western Test Range (AFWTR)
Object type
Payload
Rocket body
Debris
Shape & HBR
Unknown shape, 0.2 m
Radar Cross Section
Small (<0.1 m²)

Expand to show TLE details & history
Last TLE update: 15 hours ago

TLE from 15 hours ago
0 DELTA 1 DEB
1 10712U 76077AH  26145.33010869  .00000628  00000-0  49514-2 0  9997
2 10712 102.2241 278.9273 0082271 143.1004 246.4340 12.40566156244825
Epoch: 2026-05-25T07:55Z
TLE epoch observation values (Epoch: 2026-05-25T07:55:21.390Z)
Latitude
28.00697°
Longitude
-89.41567°
Altitude
1,533.704 km
Speed
7.09 km/s
True Right ascension
18h 09m 22s
True Declination
27° 52' 43"
Sunlit
Object was in daylight at epoch
Visualization orbit readout
Latitude
Unknown
Longitude
Unknown
Altitude
Unknown
Speed
Unknown
Apparent Right ascension
Unknown
Apparent Declination
Unknown
Sunlit
N/A
Visualization observer readout
Local Sidereal Time
08:18:59
Azimuth
Unknown
Elevation
Unknown
Doppler factor
Unknown
Orbital elements
Apogee altitude
1,566.62 km
Perigee altitude
1,436.962 km
Semi-major axis
7,879.928 km
Eccentricity
0.00823
Inclination
102.2241°
RAAN
278.9273°
Arg. of periapsis
143.1004°
True anomaly
245.57344°
Mean anomaly
246.434°
Eccentric anomaly
246.00336°
Mean motion
3.10284 °/min
Orbital period
116.02 mins
BSTAR
0.0049514
Loading maneuver chart data...
Computing Atmospheric mass density...
Loading historical data...
Loading historical data...
Loading historical data...
Loading historical data...
Loading historical data...
Loading historical data...
Loading historical data...

Documentation

Showing up to 5 results
|